Regional Weather Roundup
Issued by NWS Kansas City/Pleasant Hill, MO

Home | Current Version | Previous Version | Graphics & Text | Print | Product List | Glossary Off
Versions: 1 2 3 4 5 6 7 8 9 10 11 12 13 14 15 16 17 18 19 20 21 22 23 24 25 26 27 28 29 30 31 32 33 34 35 36 37 38 39 40 41 42 43 44 45 46 47 48 49 50

000
ASUS43 KEAX 230411
RWREAX

WEATHER ROUNDUP FOR EASTERN KANSAS AND NORTHWEST MISSOURI
NATIONAL WEATHER SERVICE KANSAS CITY/PLEASANT HILL MO
1100 PM CDT FRI AUG 22 2014

KSZ040-057-103>105-MOZ028-029-037-043-230500-
...KANSAS CITY METROPOLITAN AREA...

CITY           SKY/WX    TMP DP  RH WIND       PRES   REMARKS
K.C. INTL      CLOUDY    80  71  74 NE3       29.93S
K.C. DOWNTOWN  CLOUDY    83  68  60 NE5       29.91S
LEES SUMMIT    PTCLDY    78  71  79 E5        29.93F
OLATHE - IXD   MOCLDY    76  70  82 S5        29.93S
OLATHE - OJC   MOCLDY    77  68  73 SE3       29.93R
LAWRENCE       CLOUDY    80  71  74 E5        29.92R

$$

MOZ001>008-011>017-020>025-030>033-038>040-044>046-053-054-230500-
...NORTHERN AND CENTRAL MISSOURI...

CITY           SKY/WX    TMP DP  RH WIND       PRES   REMARKS
ST. JOSEPH     CLOUDY    80  76  87 E6        29.92R
MOSBY          CLOUDY    81  75  83 CALM      29.92R
WHITEMAN AFB   PTCLDY    79  71  78 CALM      29.93R
CLINTON        PTCLDY    77  73  88 CALM      29.94R
SEDALIA        PTCLDY    81  76  84 CALM      29.94R
WARSAW         NOT AVBL
MARSHALL       PTCLDY    82  81  94 E3        29.94R HX  95
CHILLICOTHE      N/A     80  77  90 CALM      29.94R
MOBERLY        PTCLDY    79  73  83 E5        29.96R HAZE
KIRKSVILLE     PTCLDY    80  77  90 SE5       29.96F

$$

MOZ041-047>049-056>058-063>065-088>090-097-230500-
...EASTERN AND SOUTHERN MISSOURI...

CITY           SKY/WX    TMP DP  RH WIND       PRES   REMARKS
ST. LOUIS INTL MOCLDY    84  78  82 E7        29.95S HX  95
SPIRIT OF STL  MOCLDY    79  77  94 CALM      29.93R
COLUMBIA       PTCLDY    81  77  88 E7        29.93S
JEFFERSON CITY PTCLDY    80  77  90 CALM      29.92R
MEXICO         MOCLDY   N/A N/A N/A E3        29.94S
HANNIBAL       PTCLDY    81  77  89 E6        29.96S
ROLLA          PTCLDY    82  69  64 S9        29.95R
LEBANON        PTCLDY    82  68  61 S3        29.98S
OSAGE BEACH    PTCLDY    79  72  78 CALM      29.94R
SPRINGFIELD    PTCLDY    82  69  64 SW7       29.97R
BRANSON        CLEAR     82  73  74 S5        30.00S
NEVADA         CLEAR     77  72  83 CALM      29.95R
JOPLIN         CLEAR     84  71  65 S10       29.96R
WEST PLAINS    CLEAR     81  70  69 SW5       30.01R

$$

IAZ060-094-KSZ022-034>040-054-083-096-NEZ052-066-093-230500-
...KANSAS...SOUTHEAST NEBRASKA AND IOWA...

CITY           SKY/WX    TMP DP  RH WIND       PRES   REMARKS
TOPEKA         MOCLDY    81  74  79 E3        29.91R
MANHATTAN      MOCLDY    82  64  54 E3        29.89R
EMPORIA        CLEAR     75  69  81 S8        29.91S
CHANUTE        CLEAR     83  72  69 S8        29.93R
WICHITA        PTCLDY    86  66  51 S14       29.89R
OMAHA          MOCLDY    76  73  91 N7        29.94S
LINCOLN        MOCLDY    77  72  84 NE9       29.94R
FALLS CITY     CLOUDY    76  73  91 E6        29.91R
LAMONI         PTCLDY    77  75  93 CALM      29.94F
DES MOINES     CLOUDY    78  74  87 CALM      29.92S

$$




USA.gov is the U.S. government's official web portal to all federal, state and local government web resources and services.